Regional Weather Roundup
Issued by NWS Cleveland, OH

Home | Current Version | Previous Version | Text Only | Print | Product List | Glossary On
Versions: 1 2 3 4 5 6 7 8 9 10 11 12 13 14 15 16 17 18 19 20 21 22 23 24 25 26 27 28 29 30 31 32 33 34 35 36 37 38 39 40 41 42 43 44 45 46 47 48 49 50
000
ASUS41 KCLE 230010
RWRCLE
OHIO REGIONAL WEATHER ROUNDUP
NATIONAL WEATHER SERVICE CLEVELAND, OH
800 PM EDT TUE JUL 22 2014

NOTE: "FAIR" INDICATES FEW OR NO CLOUDS BELOW 12,000 FEET WITH NO
SIGNIFICANT WEATHER AND/OR OBSTRUCTIONS TO VISIBILITY.

OHZ001>008-015>018-024>027-034-035-043-044-230100-
   NORTHWEST OHIO

CITY           SKY/WX    TMP DP  RH WIND       PRES   REMARKS
DEFIANCE       MOSUNNY   87  65  47 SW9       29.98S
FINDLAY        CLEAR     83  67  58 SW7       29.99F
TOLEDO EXPRESS CLEAR     85  66  53 SW7       29.97F
TOLEDO EXEC    CLEAR     86  65  49 S10       29.97F
LIMA           CLEAR     85  67  54 SW8       30.02S
$$

OHZ009>014-019>023-028>033-038-089-230100-
   NORTHEAST OHIO

CITY           SKY/WX    TMP DP  RH WIND       PRES   REMARKS
CLE-HOPKINS    PTCLDY    84  65  52 SW8       30.02S
CLE-LAKEFRONT  PTCLDY    83  70  64 CALM      29.98F
CUY CO. ARPT   PTCLDY    86  72  62 CALM      30.01F HX  92
LORAIN-ELYRIA  CLEAR     87  67  51 SW8       30.00F HX  90
ASHTABULA      PTCLDY    82  67  60 CALM      30.02F
AKRON-CANTON   PTCLDY    85  68  56 SW5       30.04F
WOOSTER        CLEAR     82  69  64 SW6       30.04F
MANSFIELD      CLEAR     83  68  60 SW6       30.05S
YOUNGSTOWN     PTCLDY    83  68  60 S5        30.04F
$$

OHZ042-051>053-060>062-070>072-077>081-230100-
  SOUTHWEST OHIO

CITY           SKY/WX    TMP DP  RH WIND       PRES   REMARKS
CINC-COVINGTON CLEAR     86  67  52 W6        30.04S
CINC-LUNKEN    CLEAR     86  68  54 W5        30.02S
HAMILTON       CLEAR     86  68  54 W5        30.03F
DAYTON         CLEAR     84  68  58 SW8       30.05S
WRIGHT-PAT AFB CLEAR     85  69  58 W6        30.03F
DAYTON GENERAL CLEAR     86  67  52 W7        30.03F
WILMINGTON     PTCLDY    84  71  65 S3        30.04F
$$

OHZ036-037-039>041-045>050-054>059-063>069-073>076-082>088-230100-
  CENTRAL AND SOUTHEAST OHIO

CITY           SKY/WX    TMP DP  RH WIND       PRES   REMARKS
COLUMBUS       PTCLDY    89  66  46 SW8       30.03S HX  91
OSU AIRPORT    CLEAR     85  68  56 SW6       30.04R
BOLTON FIELD   CLEAR     83  73  72 MISG      30.04S
RICKENBACK AFB CLEAR     87  67  50 CALM      30.03S HX  90
NEWARK         CLEAR     84  69  60 SW6       30.04R
MARION         CLEAR     85  66  53 W8        30.03S
LANCASTER      CLEAR     85  70  60 S3        30.05R
ZANESVILLE     CLEAR     83  71  67 S3        30.04F
NEW PHILLY     CLEAR     83  71  67 S5        30.05S
$$


USA.gov is the U.S. government's official web portal to all federal, state and local government web resources and services.